Regional Weather Roundup
Issued by NWS Columbia, SC

Home | Current Version | Previous Version | Text Only | Print | Product List | Glossary On
Versions: 1 2 3 4 5 6 7 8 9 10 11 12 13 14 15 16 17 18 19 20 21 22 23 24 25 26 27 28 29 30 31 32 33 34 35 36 37 38 39 40 41 42 43 44 45 46 47 48 49 50
000
ASUS42 KCAE 300610
RWRCAE
REGIONAL WEATHER ROUNDUP
NATIONAL WEATHER SERVICE COLUMBIA SC
200 AM EDT MON MAY 30 2016

NOTE: "FAIR" INDICATES FEW OR NO CLOUDS BELOW 12,000 FEET WITH NO
SIGNIFICANT WEATHER AND/OR OBSTRUCTIONS TO VISIBILITY.

NOT ALL STATIONS ARE QUALITY CONTROLLED BY THE NATIONAL
WEATHER SERVICE. USE DATA WITH CAUTION...ESPECIALLY
DEWPOINT OBSERVATIONS.

SCZ001>056-GAZ040-063>065-077-300700-
...UPSTATE SOUTH CAROLINA...

CITY           SKY/WX    TMP DP  RH WIND       PRES   REMARKS
ANDERSON       CLOUDY    65  62  90 CALM      30.03F
6HR MIN TEMP:  64; 6HR MAX TEMP:  74;

LIBERTY        CLEAR     62  61  98 CALM      30.03F
6HR MIN TEMP:  61; 6HR MAX TEMP:  72;

SPARTANBURG    PTCLDY    66  57  72 NE6       30.03F
CLEMSON        PTCLDY    68  64  87 CALM      30.04F
6HR MIN TEMP:  68; 6HR MAX TEMP:  75;

GREENVILLE     CLOUDY    66  58  75 NE8       30.05F
6HR MIN TEMP:  65; 6HR MAX TEMP:  73;

GREENWOOD      MOCLDY    65  59  81 N3        30.03F
6HR MIN TEMP:  65; 6HR MAX TEMP:  71;

GREER          CLOUDY    64  60  87 N6        30.03F
6HR MIN TEMP:  63; 6HR MAX TEMP:  73;

ROCK HILL      CLOUDY    68  60  75 N7        30.03F
6HR MIN TEMP:  68; 6HR MAX TEMP:  73;

CHESTER        CLOUDY    68  61  77 N9        30.02F
LAURENS        MOCLDY    66  61  82 NE5       30.03S


...CENTRAL SOUTH CAROLINA...

CITY           SKY/WX    TMP DP  RH WIND       PRES   REMARKS
COLUMBIA APT   MOCLDY    71  64  78 NW8       29.96F
6HR MIN TEMP:  71; 6HR MAX TEMP:  77;

COLUMBIA OWENS CLOUDY    71  65  81 NW6       29.98F
6HR MIN TEMP:  70; 6HR MAX TEMP:  75; 6HR PCP: TRACE;

MCENTIRE ANGB  CLOUDY    68  66  94 N10       29.96F
6HR MIN TEMP:  68; 6HR MAX TEMP:  71;

ORANGEBURG     LGT RAIN  69  67  93 N8        29.94F FOG
6HR MIN TEMP:  69; 6HR MAX TEMP:  73; 6HR PCP:  0.12;

SUMTER SHAW    LGT RAIN  69  68  95 NE5       29.93S FOG
6HR MIN TEMP:  69; 6HR MAX TEMP:  71; 6HR PCP:  0.03;

NEWBERRY       CLOUDY    68  61  77 N7        30.04F
AIKEN          CLOUDY    68  61  77 N7        30.01F
BARNWELL       CLOUDY    72  72 100 NW3       29.97F
MANNING        CLOUDY    68  68 100 N3        29.93F
LANCASTER      CLOUDY    66  66 100 NW6       30.01F
WINNSBORO      CLOUDY    66  63  88 N7        30.00F


...EASTERN AND COASTAL SOUTH CAROLINA...

CITY           SKY/WX    TMP DP  RH WIND       PRES   REMARKS
MYRTLE BEACH   MOCLDY    73  64  73 SE12      29.96F
6HR MIN TEMP:  73; 6HR MAX TEMP:  75;

N MYRTLE BCH   CLOUDY    74  69  85 SE5       29.95S
6HR MIN TEMP:  74; 6HR MAX TEMP:  76; 6HR PCP: TRACE;

CONWAY         CLOUDY    70  70 100 NE5       29.95F
MARION         LGT RAIN  72  68  88 E5        29.96F
HARTSVILLE     CLOUDY    66  64  94 N8        29.96F
FLORENCE       CLOUDY    73  69  87 E9        29.95F
6HR MIN TEMP:  72; 6HR MAX TEMP:  77; 6HR PCP: TRACE;

DARLINGTON     CLOUDY    69  68  96 NE8       29.96F
6HR MIN TEMP:  69; 6HR MAX TEMP:  73; 6HR PCP:  0.01;

CHARLESTON APT CLOUDY    71  68  90 W5        29.90F
6HR MIN TEMP:  71; 6HR MAX TEMP:  73;

MOUNT PLEASANT CLOUDY    70  70 100 CALM      29.90F FOG
WALTERBORO     DRIZZLE   70  70 100 CALM      29.93F
BEAUFORT       CLOUDY    69  67  93 W10       29.93F
6HR MIN TEMP:  69; 6HR MAX TEMP:  73; 6HR PCP:  0.07;



...EASTERN GEORGIA...

CITY           SKY/WX    TMP DP  RH WIND       PRES   REMARKS
AUGUSTA BUSH F LGT RAIN  67  64  90 NW8       29.98F
6HR MIN TEMP:  67; 6HR MAX TEMP:  76; 6HR PCP:  0.12;

AUGUSTA DANIEL LGT RAIN  70  62  76 N9        30.00F
6HR MIN TEMP:  70; 6HR MAX TEMP:  76; 6HR PCP:  0.02;

THOMSON        PTCLDY    64  64 100 CALM      30.05F
6HR MIN TEMP:  63; 6HR MAX TEMP:  74;

WASHINGTON     FAIR      66  64  94 N3        30.02F
CLAXTON        LGT RAIN  68  66  94 SW3       29.98F
6HR MIN TEMP:  68; 6HR MAX TEMP:  74;

SYLVANIA       RAIN      71  66  85 NW6       29.98F
6HR MIN TEMP:  69; 6HR MAX TEMP:  72;

STATESBORO     CLOUDY    69  67  95 CALM      29.97F
6HR MIN TEMP:  68; 6HR MAX TEMP:  71;

SAVANNAH       CLOUDY    70  63  78 W7        29.96F
6HR MIN TEMP:  68; 6HR MAX TEMP:  71; 6HR PCP: TRACE;



...SOUTHERN NORTH CAROLINA...

CITY           SKY/WX    TMP DP  RH WIND       PRES   REMARKS
CHARLOTTE      CLOUDY    67  59  75 N7        30.03F
6HR MIN TEMP:  67; 6HR MAX TEMP:  72;

MONROE         CLOUDY    66  59  78 N8        30.01F
6HR MIN TEMP:  65; 6HR MAX TEMP:  71; 6HR PCP: TRACE;

WADESBORO      PTCLDY    65  62  90 N3        30.00F
6HR MIN TEMP:  65; 6HR MAX TEMP:  71; 6HR PCP:  0.01;

ROCKINGHAM     CLOUDY    66  65  96 NE6       29.99F
6HR MIN TEMP:  66; 6HR MAX TEMP:  71; 6HR PCP:  0.01;

RUTHERFORDTON  CLEAR     61  61 100 NW3       30.06F
6HR MIN TEMP:  61; 6HR MAX TEMP:  70;

ASHEVILLE      CLEAR     62  58  86 CALM      30.10F
6HR MIN TEMP:  62; 6HR MAX TEMP:  71;


$$



USA.gov is the U.S. government's official web portal to all federal, state and local government web resources and services.